Tracking 31027 objects as of 19-Jul-2025
HD Live streaming from Space Station
objects crossing your sky now

SL-12 R/B(2)

Track SL-12 R/B(2) now!


NORAD ID: 24897
Int'l Code: 1997-041D
Perigee: 34,361.8 km
Apogee: 37,382.8 km
Inclination: 14.5 °
Period: 1,440.1 minutes
Semi major axis: 42243 km
RCS: 1 m2 (large)
Launch date: August 14, 1997
Source: Commonwealth of Independent States (former USSR) (CIS)
Launch site: TYURATAM MISSILE AND SPACE COMPLEX (TTMTR)

Note: This is a ROCKET BODY
Your satellite tracking list
STARLINK-11488
Track 1 satellite(s)




NASA's NSSDC Master Catalog

Two Line Element Set (TLE):
1 24897U 97041D   25199.03377752 -.00000083  00000-0  00000-0 0  9993
2 24897  14.4838   0.6447 0357566 293.3088 260.9902  0.99992294102011
Source of the keplerian elements: AFSPC